Year,Month,Day,Hour,Minute,Value (Times are PST for temperature in C)
2015,07,01,00,00,16.90
2015,07,01,00,01,16.80
2015,07,01,00,02,16.80
2015,07,01,00,03,16.80
2015,07,01,00,04,16.80
2015,07,01,00,05,16.80
2015,07,01,00,06,16.70
2015,07,01,00,07,16.70
2015,07,01,00,08,16.70
2015,07,01,00,09,16.70
2015,07,01,00,10,16.60
2015,07,01,00,11,16.60
2015,07,01,00,12,16.50
2015,07,01,00,13,16.50
2015,07,01,00,14,16.40
2015,07,01,00,15,16.40
2015,07,01,00,16,16.40
2015,07,01,00,17,16.30
2015,07,01,00,18,16.20
2015,07,01,00,19,16.20
2015,07,01,00,20,16.00
2015,07,01,00,21,15.80
2015,07,01,00,22,15.40
2015,07,01,00,23,15.20
2015,07,01,00,24,14.90
2015,07,01,00,25,14.70
2015,07,01,00,26,14.50
2015,07,01,00,27,14.30
2015,07,01,00,28,14.20
2015,07,01,00,29,14.10
2015,07,01,00,30,14.00
2015,07,01,00,31,13.90
2015,07,01,00,32,13.80
2015,07,01,00,33,13.80
2015,07,01,00,34,13.70
2015,07,01,00,35,13.70
2015,07,01,00,36,13.70
2015,07,01,00,37,13.70
2015,07,01,00,38,13.70
2015,07,01,00,39,13.70
2015,07,01,00,40,13.70
2015,07,01,00,41,13.70
2015,07,01,00,42,13.70
2015,07,01,00,43,13.70
2015,07,01,00,44,13.70
2015,07,01,00,45,13.60
2015,07,01,00,46,13.60
2015,07,01,00,47,13.60
2015,07,01,00,48,13.60
2015,07,01,00,49,13.60
2015,07,01,00,50,13.50
2015,07,01,00,51,13.50
2015,07,01,00,52,13.40
2015,07,01,00,53,13.40
2015,07,01,00,54,13.40
2015,07,01,00,55,13.40
2015,07,01,00,56,13.30
2015,07,01,00,57,13.30
2015,07,01,00,58,13.30
2015,07,01,00,59,13.30
2015,07,01,01,00,13.30
2015,07,01,01,01,13.30
2015,07,01,01,02,13.30
2015,07,01,01,03,13.30
2015,07,01,01,04,13.30
2015,07,01,01,05,13.30
2015,07,01,01,06,13.30
2015,07,01,01,07,13.30
2015,07,01,01,08,13.30
2015,07,01,01,09,13.30
2015,07,01,01,10,13.30
2015,07,01,01,11,13.30
2015,07,01,01,12,13.30
2015,07,01,01,13,13.30
2015,07,01,01,14,13.30
2015,07,01,01,15,13.30
2015,07,01,01,16,13.30
2015,07,01,01,17,13.30
2015,07,01,01,18,13.20
2015,07,01,01,19,13.20
2015,07,01,01,20,13.20
2015,07,01,01,21,13.20
2015,07,01,01,22,13.20
2015,07,01,01,23,13.20
2015,07,01,01,24,13.20
2015,07,01,01,25,13.20
2015,07,01,01,26,13.20
2015,07,01,01,27,13.20
2015,07,01,01,28,13.20
2015,07,01,01,29,13.20
2015,07,01,01,30,13.20
2015,07,01,01,31,13.20
2015,07,01,01,32,13.30
2015,07,01,01,33,13.30
2015,07,01,01,34,13.30
2015,07,01,01,35,13.30
2015,07,01,01,36,13.30
2015,07,01,01,37,13.30
2015,07,01,01,38,13.30
2015,07,01,01,39,13.30
2015,07,01,01,40,13.30
2015,07,01,01,41,13.30
2015,07,01,01,42,13.30
2015,07,01,01,43,13.30
2015,07,01,01,44,13.30
2015,07,01,01,45,13.30
2015,07,01,01,46,13.30
2015,07,01,01,47,13.30
2015,07,01,01,48,13.30
2015,07,01,01,49,13.30
2015,07,01,01,50,13.30
2015,07,01,01,51,13.40
2015,07,01,01,52,13.40
2015,07,01,01,53,13.50
2015,07,01,01,54,13.50
2015,07,01,01,55,13.50
2015,07,01,01,56,13.60
2015,07,01,01,57,13.60
2015,07,01,01,58,13.60
2015,07,01,01,59,13.60
2015,07,01,02,00,13.60
2015,07,01,02,01,13.60
2015,07,01,02,02,13.70
2015,07,01,02,03,13.70
2015,07,01,02,04,13.70
2015,07,01,02,05,13.70
2015,07,01,02,06,13.70
2015,07,01,02,07,13.70
2015,07,01,02,08,13.70
2015,07,01,02,09,13.80
2015,07,01,02,10,13.80
2015,07,01,02,11,13.80
2015,07,01,02,12,13.80
2015,07,01,02,13,13.80
2015,07,01,02,14,13.80
2015,07,01,02,15,13.90
2015,07,01,02,16,13.90
2015,07,01,02,17,13.90
2015,07,01,02,18,13.90
2015,07,01,02,19,13.90
2015,07,01,02,20,14.00
2015,07,01,02,21,14.00
2015,07,01,02,22,14.00
2015,07,01,02,23,14.00
2015,07,01,02,24,14.00
2015,07,01,02,25,14.00
2015,07,01,02,26,14.00
2015,07,01,02,27,14.00
2015,07,01,02,28,14.00
2015,07,01,02,29,14.00
2015,07,01,02,30,13.90
2015,07,01,02,31,13.90
2015,07,01,02,32,13.90
2015,07,01,02,33,13.90
2015,07,01,02,34,13.90
2015,07,01,02,35,13.90
2015,07,01,02,36,13.80
2015,07,01,02,37,13.80
2015,07,01,02,38,13.80
2015,07,01,02,39,13.80
2015,07,01,02,40,13.80
2015,07,01,02,41,13.80
2015,07,01,02,42,13.80
2015,07,01,02,43,13.80
2015,07,01,02,44,13.80
2015,07,01,02,45,13.80
2015,07,01,02,46,13.70
2015,07,01,02,47,13.70
2015,07,01,02,48,13.70
2015,07,01,02,49,13.70
2015,07,01,02,50,13.70
2015,07,01,02,51,13.80
2015,07,01,02,52,13.80
2015,07,01,02,53,13.80
2015,07,01,02,54,13.80
2015,07,01,02,55,13.80
2015,07,01,02,56,13.80
2015,07,01,02,57,13.80
2015,07,01,02,58,13.80
2015,07,01,02,59,13.80
2015,07,01,03,00,13.90
2015,07,01,03,01,13.90
2015,07,01,03,02,13.90
2015,07,01,03,03,13.90
2015,07,01,03,04,14.00
2015,07,01,03,05,14.00
2015,07,01,03,06,14.10
2015,07,01,03,07,14.10
2015,07,01,03,08,14.10
2015,07,01,03,09,14.10
2015,07,01,03,10,14.10
2015,07,01,03,11,14.10
2015,07,01,03,12,14.10
2015,07,01,03,13,14.10
2015,07,01,03,14,14.10
2015,07,01,03,15,14.00
2015,07,01,03,16,14.00
2015,07,01,03,17,14.00
2015,07,01,03,18,14.00
2015,07,01,03,19,14.00
2015,07,01,03,20,13.90
2015,07,01,03,21,13.90
2015,07,01,03,22,14.00
2015,07,01,03,23,14.00
2015,07,01,03,24,14.00
2015,07,01,03,25,14.00
2015,07,01,03,26,14.00
2015,07,01,03,27,14.00
2015,07,01,03,28,14.00
2015,07,01,03,29,14.00
2015,07,01,03,30,13.90
2015,07,01,03,31,13.90
2015,07,01,03,32,13.90
2015,07,01,03,33,13.90
2015,07,01,03,34,13.80
2015,07,01,03,35,13.80
2015,07,01,03,36,13.80
2015,07,01,03,37,13.80
2015,07,01,03,38,13.70
2015,07,01,03,39,13.70
2015,07,01,03,40,13.70
2015,07,01,03,41,13.70
2015,07,01,03,42,13.70
2015,07,01,03,43,13.70
2015,07,01,03,44,13.70
2015,07,01,03,45,13.70
2015,07,01,03,46,13.70
2015,07,01,03,47,13.60
2015,07,01,03,48,13.60
2015,07,01,03,49,13.60
2015,07,01,03,50,13.60
2015,07,01,03,51,13.60
2015,07,01,03,52,13.60
2015,07,01,03,53,13.60
2015,07,01,03,54,13.60
2015,07,01,03,55,13.60
2015,07,01,03,56,13.70
2015,07,01,03,57,13.60
2015,07,01,03,58,13.60
2015,07,01,03,59,13.60
2015,07,01,04,00,13.60
2015,07,01,04,01,13.60
2015,07,01,04,02,13.60
2015,07,01,04,03,13.60
2015,07,01,04,04,13.60
2015,07,01,04,05,13.60
2015,07,01,04,06,13.50
2015,07,01,04,07,13.50
2015,07,01,04,08,13.50
2015,07,01,04,09,13.50
2015,07,01,04,10,13.40
2015,07,01,04,11,13.40
2015,07,01,04,12,13.40
2015,07,01,04,13,13.40
2015,07,01,04,14,13.30
2015,07,01,04,15,13.30
2015,07,01,04,16,13.30
2015,07,01,04,17,13.40
2015,07,01,04,18,13.40
2015,07,01,04,19,13.40
2015,07,01,04,20,13.40
2015,07,01,04,21,13.40
2015,07,01,04,22,13.40
2015,07,01,04,23,13.50
2015,07,01,04,24,13.50
2015,07,01,04,25,13.50
2015,07,01,04,26,13.50
2015,07,01,04,27,13.60
2015,07,01,04,28,13.60
2015,07,01,04,29,13.60
2015,07,01,04,30,13.60
2015,07,01,04,31,13.60
2015,07,01,04,32,13.60
2015,07,01,04,33,13.60
2015,07,01,04,34,13.50
2015,07,01,04,35,13.50
2015,07,01,04,36,13.50
2015,07,01,04,37,13.50
2015,07,01,04,38,13.50
2015,07,01,04,39,13.50
2015,07,01,04,40,13.50
2015,07,01,04,41,13.40
2015,07,01,04,42,13.40
2015,07,01,04,43,13.40
2015,07,01,04,44,13.50
2015,07,01,04,45,13.50
2015,07,01,04,46,13.60
2015,07,01,04,47,13.60
2015,07,01,04,48,13.50
2015,07,01,04,49,13.50
2015,07,01,04,50,13.50
2015,07,01,04,51,13.50
2015,07,01,04,52,13.50
2015,07,01,04,53,13.60
2015,07,01,04,54,13.60
2015,07,01,04,55,13.60
2015,07,01,04,56,13.60
2015,07,01,04,57,13.70
2015,07,01,04,58,13.70
2015,07,01,04,59,13.70
2015,07,01,05,00,13.70
2015,07,01,05,01,13.70
2015,07,01,05,02,13.80
2015,07,01,05,03,13.80
2015,07,01,05,04,13.90
2015,07,01,05,05,13.90
2015,07,01,05,06,13.90
2015,07,01,05,07,14.00
2015,07,01,05,08,14.00
2015,07,01,05,09,14.10
2015,07,01,05,10,14.10
2015,07,01,05,11,14.10
2015,07,01,05,12,14.10
2015,07,01,05,13,14.10
2015,07,01,05,14,14.10
2015,07,01,05,15,14.10
2015,07,01,05,16,14.10
2015,07,01,05,17,14.10
2015,07,01,05,18,14.10
2015,07,01,05,19,14.10
2015,07,01,05,20,14.10
2015,07,01,05,21,14.00
2015,07,01,05,22,14.00
2015,07,01,05,23,14.00
2015,07,01,05,24,13.90
2015,07,01,05,25,13.90
2015,07,01,05,26,13.80
2015,07,01,05,27,13.80
2015,07,01,05,28,13.70
2015,07,01,05,29,13.70
2015,07,01,05,30,13.70
2015,07,01,05,31,13.70
2015,07,01,05,32,13.60
2015,07,01,05,33,13.60
2015,07,01,05,34,13.60
2015,07,01,05,35,13.60
2015,07,01,05,36,13.60
2015,07,01,05,37,13.60
2015,07,01,05,38,13.50
2015,07,01,05,39,13.50
2015,07,01,05,40,13.50
2015,07,01,05,41,13.50
2015,07,01,05,42,13.50
2015,07,01,05,43,13.50
2015,07,01,05,44,13.50
2015,07,01,05,45,13.50
2015,07,01,05,46,13.50
2015,07,01,05,47,13.50
2015,07,01,05,48,13.60
2015,07,01,05,49,13.60
2015,07,01,05,50,13.60
2015,07,01,05,51,13.60
2015,07,01,05,52,13.70
2015,07,01,05,53,13.70
2015,07,01,05,54,13.70
2015,07,01,05,55,13.80
2015,07,01,05,56,13.80
2015,07,01,05,57,13.90
2015,07,01,05,58,14.00
2015,07,01,05,59,14.00
2015,07,01,06,00,14.10
2015,07,01,06,01,14.10
2015,07,01,06,02,14.10
2015,07,01,06,03,14.10
2015,07,01,06,04,14.10
2015,07,01,06,05,14.20
2015,07,01,06,06,14.20
2015,07,01,06,07,14.30
2015,07,01,06,08,14.30
2015,07,01,06,09,14.40
2015,07,01,06,10,14.40
2015,07,01,06,11,14.40
2015,07,01,06,12,14.50
2015,07,01,06,13,14.50
2015,07,01,06,14,14.60
2015,07,01,06,15,14.60
2015,07,01,06,16,14.70
2015,07,01,06,17,14.70
2015,07,01,06,18,14.70
2015,07,01,06,19,14.80
2015,07,01,06,20,14.80
2015,07,01,06,21,14.90
2015,07,01,06,22,15.00
2015,07,01,06,23,15.00
2015,07,01,06,24,15.10
2015,07,01,06,25,15.20
2015,07,01,06,26,15.30
2015,07,01,06,27,15.40
2015,07,01,06,28,15.40
2015,07,01,06,29,15.40
2015,07,01,06,30,15.40
2015,07,01,06,31,15.40
2015,07,01,06,32,15.40
2015,07,01,06,33,15.40
2015,07,01,06,34,15.40
2015,07,01,06,35,15.40
2015,07,01,06,36,15.50
2015,07,01,06,37,15.60
2015,07,01,06,38,15.70
2015,07,01,06,39,15.80
2015,07,01,06,40,15.80
2015,07,01,06,41,15.90
2015,07,01,06,42,16.00
2015,07,01,06,43,16.10
2015,07,01,06,44,16.20
2015,07,01,06,45,16.30
2015,07,01,06,46,16.40
2015,07,01,06,47,16.50
2015,07,01,06,48,16.60
2015,07,01,06,49,16.70
2015,07,01,06,50,16.80
2015,07,01,06,51,16.80
2015,07,01,06,52,16.90
2015,07,01,06,53,17.00
2015,07,01,06,54,17.20
2015,07,01,06,55,17.30
2015,07,01,06,56,17.40
2015,07,01,06,57,17.50
2015,07,01,06,58,17.60
2015,07,01,06,59,17.70
2015,07,01,07,00,17.80
2015,07,01,07,01,17.90
2015,07,01,07,02,17.90
2015,07,01,07,03,18.00
2015,07,01,07,04,18.10
2015,07,01,07,05,18.20
2015,07,01,07,06,18.20
2015,07,01,07,07,18.30
2015,07,01,07,08,18.30
2015,07,01,07,09,18.40
2015,07,01,07,10,18.40
2015,07,01,07,11,18.40
2015,07,01,07,12,18.50
2015,07,01,07,13,18.60
2015,07,01,07,14,18.60
2015,07,01,07,15,18.70
2015,07,01,07,16,18.70
2015,07,01,07,17,18.80
2015,07,01,07,18,18.90
2015,07,01,07,19,18.90
2015,07,01,07,20,19.00
2015,07,01,07,21,19.00
2015,07,01,07,22,19.00
2015,07,01,07,23,19.10
2015,07,01,07,24,19.10
2015,07,01,07,25,19.10
2015,07,01,07,26,19.20
2015,07,01,07,27,19.30
2015,07,01,07,28,19.30
2015,07,01,07,29,19.30
2015,07,01,07,30,19.30
2015,07,01,07,31,19.30
2015,07,01,07,32,19.30
2015,07,01,07,33,19.30
2015,07,01,07,34,19.30
2015,07,01,07,35,19.40
2015,07,01,07,36,19.40
2015,07,01,07,37,19.40
2015,07,01,07,38,19.40
2015,07,01,07,39,19.40
2015,07,01,07,40,19.50
2015,07,01,07,41,19.50
2015,07,01,07,42,19.60
2015,07,01,07,43,19.60
2015,07,01,07,44,19.70
2015,07,01,07,45,19.70
2015,07,01,07,46,19.70
2015,07,01,07,47,19.80
2015,07,01,07,48,19.80
2015,07,01,07,49,19.90
2015,07,01,07,50,19.90
2015,07,01,07,51,20.00
2015,07,01,07,52,20.00
2015,07,01,07,53,20.10
2015,07,01,07,54,20.10
2015,07,01,07,55,20.20
2015,07,01,07,56,20.20
2015,07,01,07,57,20.20
2015,07,01,07,58,20.20
2015,07,01,07,59,20.30
2015,07,01,08,00,20.30
2015,07,01,08,01,20.30
2015,07,01,08,02,20.40
2015,07,01,08,03,20.50
2015,07,01,08,04,20.50
2015,07,01,08,05,20.60
2015,07,01,08,06,20.70
2015,07,01,08,07,20.70
2015,07,01,08,08,20.70
2015,07,01,08,09,20.70
2015,07,01,08,10,20.80
2015,07,01,08,11,20.80
2015,07,01,08,12,20.90
2015,07,01,08,13,20.90
2015,07,01,08,14,21.00
2015,07,01,08,15,21.00
2015,07,01,08,16,21.00
2015,07,01,08,17,21.10
2015,07,01,08,18,21.10
2015,07,01,08,19,21.20
2015,07,01,08,20,21.20
2015,07,01,08,21,21.30
2015,07,01,08,22,21.30
2015,07,01,08,23,21.30
2015,07,01,08,24,21.30
2015,07,01,08,25,21.30
2015,07,01,08,26,21.10
2015,07,01,08,27,21.00
2015,07,01,08,28,20.90
2015,07,01,08,29,20.90
2015,07,01,08,30,20.90
2015,07,01,08,31,20.80
2015,07,01,08,32,20.70
2015,07,01,08,33,20.70
2015,07,01,08,34,20.80
2015,07,01,08,35,20.80
2015,07,01,08,36,20.70
2015,07,01,08,37,20.70
2015,07,01,08,38,20.80
2015,07,01,08,39,20.80
2015,07,01,08,40,21.00
2015,07,01,08,41,21.10
2015,07,01,08,42,21.10
2015,07,01,08,43,21.10
2015,07,01,08,44,21.10
2015,07,01,08,45,20.70
2015,07,01,08,46,20.20
2015,07,01,08,47,19.70
2015,07,01,08,48,19.30
2015,07,01,08,49,19.10
2015,07,01,08,50,18.90
2015,07,01,08,51,18.80
2015,07,01,08,52,18.90
2015,07,01,08,53,19.10
2015,07,01,08,54,19.40
2015,07,01,08,55,19.80
2015,07,01,08,56,20.00
2015,07,01,08,57,20.20
2015,07,01,08,58,20.40
2015,07,01,08,59,20.60
2015,07,01,09,00,20.70
2015,07,01,09,01,20.70
2015,07,01,09,02,20.80
2015,07,01,09,03,20.80
2015,07,01,09,04,20.90
2015,07,01,09,05,21.00
2015,07,01,09,06,21.00
2015,07,01,09,07,21.10
2015,07,01,09,08,21.20
2015,07,01,09,09,21.30
2015,07,01,09,10,21.30
2015,07,01,09,11,21.40
2015,07,01,09,12,21.40
2015,07,01,09,13,21.20
2015,07,01,09,14,20.80
2015,07,01,09,15,20.20
2015,07,01,09,16,19.50
2015,07,01,09,17,18.90
2015,07,01,09,18,18.50
2015,07,01,09,19,18.10
2015,07,01,09,20,17.70
2015,07,01,09,21,17.40
2015,07,01,09,22,17.30
2015,07,01,09,23,17.20
2015,07,01,09,24,17.20
2015,07,01,09,25,17.00
2015,07,01,09,26,17.00
2015,07,01,09,27,16.80
2015,07,01,09,28,16.70
2015,07,01,09,29,16.70
2015,07,01,09,30,16.70
2015,07,01,09,31,16.80
2015,07,01,09,32,16.80
2015,07,01,09,33,16.80
2015,07,01,09,34,16.70
2015,07,01,09,35,16.70
2015,07,01,09,36,16.70
2015,07,01,09,37,16.70
2015,07,01,09,38,16.70
2015,07,01,09,39,16.70
2015,07,01,09,40,16.80
2015,07,01,09,41,16.70
2015,07,01,09,42,16.70
2015,07,01,09,43,16.70
2015,07,01,09,44,16.70
2015,07,01,09,45,16.70
2015,07,01,09,46,16.80
2015,07,01,09,47,16.90
2015,07,01,09,48,17.10
2015,07,01,09,49,17.10
2015,07,01,09,50,17.10
2015,07,01,09,51,17.20
2015,07,01,09,52,17.20
2015,07,01,09,53,17.20
2015,07,01,09,54,17.30
2015,07,01,09,55,17.30
2015,07,01,09,56,17.40
2015,07,01,09,57,17.50
2015,07,01,09,58,17.60
2015,07,01,09,59,17.70
2015,07,01,10,00,17.80
2015,07,01,10,01,17.80
2015,07,01,10,02,17.80
2015,07,01,10,03,17.80
2015,07,01,10,04,17.80
2015,07,01,10,05,17.90
2015,07,01,10,06,18.00
2015,07,01,10,07,18.10
2015,07,01,10,08,18.10
2015,07,01,10,09,18.20
2015,07,01,10,10,18.20
2015,07,01,10,11,18.30
2015,07,01,10,12,18.30
2015,07,01,10,13,18.30
2015,07,01,10,14,18.30
2015,07,01,10,15,18.30
2015,07,01,10,16,18.30
2015,07,01,10,17,18.20
2015,07,01,10,18,18.10
2015,07,01,10,19,18.00
2015,07,01,10,20,17.90
2015,07,01,10,21,17.90
2015,07,01,10,22,17.90
2015,07,01,10,23,17.80
2015,07,01,10,24,17.90
2015,07,01,10,25,18.00
2015,07,01,10,26,18.10
2015,07,01,10,27,18.30
2015,07,01,10,28,18.30
2015,07,01,10,29,18.20
2015,07,01,10,30,18.10
2015,07,01,10,31,18.00
2015,07,01,10,32,17.90
2015,07,01,10,33,17.90
2015,07,01,10,34,17.90
2015,07,01,10,35,17.90
2015,07,01,10,36,18.00
2015,07,01,10,37,18.00
2015,07,01,10,38,17.90
2015,07,01,10,39,17.90
2015,07,01,10,40,18.10
2015,07,01,10,41,18.20
2015,07,01,10,42,18.40
2015,07,01,10,43,18.50
2015,07,01,10,44,18.60
2015,07,01,10,45,18.60
2015,07,01,10,46,18.60
2015,07,01,10,47,18.60
2015,07,01,10,48,18.60
2015,07,01,10,49,18.60
2015,07,01,10,50,18.60
2015,07,01,10,51,18.60
2015,07,01,10,52,18.60
2015,07,01,10,53,18.60
2015,07,01,10,54,18.60
2015,07,01,10,55,18.60
2015,07,01,10,56,18.70
2015,07,01,10,57,18.80
2015,07,01,10,58,18.80
2015,07,01,10,59,18.80
2015,07,01,11,00,18.80
2015,07,01,11,01,18.90
2015,07,01,11,02,18.90
2015,07,01,11,03,18.90
2015,07,01,11,04,18.90
2015,07,01,11,05,18.90
2015,07,01,11,06,19.00
2015,07,01,11,07,19.10
2015,07,01,11,08,19.10
2015,07,01,11,09,19.20
2015,07,01,11,10,19.30
2015,07,01,11,11,19.40
2015,07,01,11,12,19.60
2015,07,01,11,13,19.70
2015,07,01,11,14,19.90
2015,07,01,11,15,20.00
2015,07,01,11,16,20.20
2015,07,01,11,17,20.30
2015,07,01,11,18,20.40
2015,07,01,11,19,20.50
2015,07,01,11,20,20.60
2015,07,01,11,21,20.60
2015,07,01,11,22,20.60
2015,07,01,11,23,20.60
2015,07,01,11,24,20.60
2015,07,01,11,25,20.60
2015,07,01,11,26,20.60
2015,07,01,11,27,20.60
2015,07,01,11,28,20.60
2015,07,01,11,29,20.60
2015,07,01,11,30,20.60
2015,07,01,11,31,20.60
2015,07,01,11,32,20.60
2015,07,01,11,33,20.70
2015,07,01,11,34,20.80
2015,07,01,11,35,20.80
2015,07,01,11,36,20.80
2015,07,01,11,37,20.90
2015,07,01,11,38,21.00
2015,07,01,11,39,21.00
2015,07,01,11,40,21.10
2015,07,01,11,41,21.00
2015,07,01,11,42,20.90
2015,07,01,11,43,20.80
2015,07,01,11,44,20.60
2015,07,01,11,45,20.40
2015,07,01,11,46,20.20
2015,07,01,11,47,20.20
2015,07,01,11,48,20.20
2015,07,01,11,49,20.30
2015,07,01,11,50,20.30
2015,07,01,11,51,20.30
2015,07,01,11,52,20.40
2015,07,01,11,53,20.50
2015,07,01,11,54,20.70
2015,07,01,11,55,21.00
2015,07,01,11,56,21.10
2015,07,01,11,57,21.10
2015,07,01,11,58,21.10
2015,07,01,11,59,21.00
2015,07,01,12,00,21.00
2015,07,01,12,01,20.90
2015,07,01,12,02,20.90
2015,07,01,12,03,21.10
2015,07,01,12,04,21.20
2015,07,01,12,05,21.30
2015,07,01,12,06,21.50
2015,07,01,12,07,21.70
2015,07,01,12,08,21.80
2015,07,01,12,09,21.90
2015,07,01,12,10,21.90
2015,07,01,12,11,21.90
2015,07,01,12,12,21.80
2015,07,01,12,13,21.80
2015,07,01,12,14,21.80
2015,07,01,12,15,21.80
2015,07,01,12,16,21.80
2015,07,01,12,17,21.80
2015,07,01,12,18,21.80
2015,07,01,12,19,21.70
2015,07,01,12,20,21.60
2015,07,01,12,21,21.60
2015,07,01,12,22,21.70
2015,07,01,12,23,21.80
2015,07,01,12,24,21.90
2015,07,01,12,25,22.10
2015,07,01,12,26,22.10
2015,07,01,12,27,22.10
2015,07,01,12,28,22.10
2015,07,01,12,29,22.10
2015,07,01,12,30,22.30
2015,07,01,12,31,22.40
2015,07,01,12,32,22.70
2015,07,01,12,33,22.90
2015,07,01,12,34,23.00
2015,07,01,12,35,23.10
2015,07,01,12,36,23.20
2015,07,01,12,37,23.20
2015,07,01,12,38,23.10
2015,07,01,12,39,22.90
2015,07,01,12,40,22.70
2015,07,01,12,41,22.60
2015,07,01,12,42,22.60
2015,07,01,12,43,22.60
2015,07,01,12,44,22.70
2015,07,01,12,45,22.70
2015,07,01,12,46,22.70
2015,07,01,12,47,22.80
2015,07,01,12,48,22.90
2015,07,01,12,49,22.90
2015,07,01,12,50,23.00
2015,07,01,12,51,23.10
2015,07,01,12,52,22.90
2015,07,01,12,53,22.80
2015,07,01,12,54,22.60
2015,07,01,12,55,22.60
2015,07,01,12,56,22.70
2015,07,01,12,57,22.60
2015,07,01,12,58,22.60
2015,07,01,12,59,22.50
2015,07,01,13,00,22.40
2015,07,01,13,01,22.30
2015,07,01,13,02,22.10
2015,07,01,13,03,22.00
2015,07,01,13,04,21.90
2015,07,01,13,05,21.90
2015,07,01,13,06,21.80
2015,07,01,13,07,21.90
2015,07,01,13,08,22.00
2015,07,01,13,09,22.00
2015,07,01,13,10,22.10
2015,07,01,13,11,22.20
2015,07,01,13,12,22.40
2015,07,01,13,13,22.50
2015,07,01,13,14,22.40
2015,07,01,13,15,22.30
2015,07,01,13,16,22.30
2015,07,01,13,17,22.30
2015,07,01,13,18,22.20
2015,07,01,13,19,22.20
2015,07,01,13,20,22.20
2015,07,01,13,21,22.30
2015,07,01,13,22,22.50
2015,07,01,13,23,22.60
2015,07,01,13,24,22.70
2015,07,01,13,25,22.70
2015,07,01,13,26,22.80
2015,07,01,13,27,22.70
2015,07,01,13,28,22.70
2015,07,01,13,29,22.70
2015,07,01,13,30,22.60
2015,07,01,13,31,22.60
2015,07,01,13,32,22.70
2015,07,01,13,33,22.60
2015,07,01,13,34,22.50
2015,07,01,13,35,22.40
2015,07,01,13,36,22.50
2015,07,01,13,37,22.60
2015,07,01,13,38,22.60
2015,07,01,13,39,22.60
2015,07,01,13,40,22.60
2015,07,01,13,41,22.60
2015,07,01,13,42,22.70
2015,07,01,13,43,22.70
2015,07,01,13,44,22.80
2015,07,01,13,45,22.90
2015,07,01,13,46,23.20
2015,07,01,13,47,23.20
2015,07,01,13,48,23.20
2015,07,01,13,49,23.00
2015,07,01,13,50,23.00
2015,07,01,13,51,22.90
2015,07,01,13,52,22.80
2015,07,01,13,53,22.70
2015,07,01,13,54,22.70
2015,07,01,13,55,22.80
2015,07,01,13,56,22.90
2015,07,01,13,57,22.90
2015,07,01,13,58,22.90
2015,07,01,13,59,22.90
2015,07,01,14,00,23.00
2015,07,01,14,01,23.00
2015,07,01,14,02,23.00
2015,07,01,14,03,23.10
2015,07,01,14,04,23.10
2015,07,01,14,05,23.20
2015,07,01,14,06,23.30
2015,07,01,14,07,23.50
2015,07,01,14,08,23.60
2015,07,01,14,09,23.60
2015,07,01,14,10,23.70
2015,07,01,14,11,23.90
2015,07,01,14,12,24.10
2015,07,01,14,13,24.30
2015,07,01,14,14,24.50
2015,07,01,14,15,24.70
2015,07,01,14,16,24.90
2015,07,01,14,17,25.10
2015,07,01,14,18,25.30
2015,07,01,14,19,25.30
2015,07,01,14,20,25.20
2015,07,01,14,21,25.20
2015,07,01,14,22,25.10
2015,07,01,14,23,25.10
2015,07,01,14,24,25.10
2015,07,01,14,25,25.10
2015,07,01,14,26,25.10
2015,07,01,14,27,25.30
2015,07,01,14,28,25.50
2015,07,01,14,29,25.70
2015,07,01,14,30,25.90
2015,07,01,14,31,26.00
2015,07,01,14,32,26.10
2015,07,01,14,33,26.10
2015,07,01,14,34,26.10
2015,07,01,14,35,26.00
2015,07,01,14,36,25.80
2015,07,01,14,37,25.70
2015,07,01,14,38,25.50
2015,07,01,14,39,25.30
2015,07,01,14,40,25.10
2015,07,01,14,41,24.80
2015,07,01,14,42,24.60
2015,07,01,14,43,24.60
2015,07,01,14,44,24.40
2015,07,01,14,45,24.20
2015,07,01,14,46,24.10
2015,07,01,14,47,23.90
2015,07,01,14,48,23.80
2015,07,01,14,49,23.80
2015,07,01,14,50,23.90
2015,07,01,14,51,23.90
2015,07,01,14,52,23.90
2015,07,01,14,53,24.00
2015,07,01,14,54,24.00
2015,07,01,14,55,23.90
2015,07,01,14,56,23.80
2015,07,01,14,57,23.80
2015,07,01,14,58,23.80
2015,07,01,14,59,23.70
2015,07,01,15,00,23.70
2015,07,01,15,01,23.60
2015,07,01,15,02,23.50
2015,07,01,15,03,23.40
2015,07,01,15,04,23.40
2015,07,01,15,05,23.40
2015,07,01,15,06,23.50
2015,07,01,15,07,23.60
2015,07,01,15,08,23.80
2015,07,01,15,09,24.00
2015,07,01,15,10,24.20
2015,07,01,15,11,24.20
2015,07,01,15,12,24.10
2015,07,01,15,13,23.90
2015,07,01,15,14,23.80
2015,07,01,15,15,23.90
2015,07,01,15,16,24.00
2015,07,01,15,17,24.10
2015,07,01,15,18,24.30
2015,07,01,15,19,24.40
2015,07,01,15,20,24.40
2015,07,01,15,21,24.40
2015,07,01,15,22,24.40
2015,07,01,15,23,24.50
2015,07,01,15,24,24.60
2015,07,01,15,25,24.70
2015,07,01,15,26,24.60
2015,07,01,15,27,24.60
2015,07,01,15,28,24.50
2015,07,01,15,29,24.50
2015,07,01,15,30,24.50
2015,07,01,15,31,24.50
2015,07,01,15,32,24.40
2015,07,01,15,33,24.40
2015,07,01,15,34,24.30
2015,07,01,15,35,24.20
2015,07,01,15,36,24.30
2015,07,01,15,37,24.30
2015,07,01,15,38,24.30
2015,07,01,15,39,24.30
2015,07,01,15,40,24.40
2015,07,01,15,41,24.50
2015,07,01,15,42,24.70
2015,07,01,15,43,24.80
2015,07,01,15,44,25.00
2015,07,01,15,45,25.10
2015,07,01,15,46,25.10
2015,07,01,15,47,25.20
2015,07,01,15,48,25.20
2015,07,01,15,49,25.20
2015,07,01,15,50,25.20
2015,07,01,15,51,25.20
2015,07,01,15,52,25.10
2015,07,01,15,53,25.10
2015,07,01,15,54,25.00
2015,07,01,15,55,24.80
2015,07,01,15,56,24.60
2015,07,01,15,57,24.50
2015,07,01,15,58,24.40
2015,07,01,15,59,24.30
2015,07,01,16,00,24.30
2015,07,01,16,01,24.30
2015,07,01,16,02,24.20
2015,07,01,16,03,24.20
2015,07,01,16,04,24.10
2015,07,01,16,05,24.20
2015,07,01,16,06,24.30
2015,07,01,16,07,24.50
2015,07,01,16,08,24.60
2015,07,01,16,09,24.70
2015,07,01,16,10,24.80
2015,07,01,16,11,24.90
2015,07,01,16,12,25.10
2015,07,01,16,13,25.20
2015,07,01,16,14,25.40
2015,07,01,16,15,25.40
2015,07,01,16,16,25.40
2015,07,01,16,17,25.40
2015,07,01,16,18,25.40
2015,07,01,16,19,25.40
2015,07,01,16,20,25.30
2015,07,01,16,21,25.30
2015,07,01,16,22,25.40
2015,07,01,16,23,25.60
2015,07,01,16,24,25.90
2015,07,01,16,25,26.10
2015,07,01,16,26,26.20
2015,07,01,16,27,26.20
2015,07,01,16,28,26.30
2015,07,01,16,29,26.40
2015,07,01,16,30,26.40
2015,07,01,16,31,26.20
2015,07,01,16,32,26.20
2015,07,01,16,33,26.30
2015,07,01,16,34,26.30
2015,07,01,16,35,26.30
2015,07,01,16,36,26.20
2015,07,01,16,37,26.40
2015,07,01,16,38,26.50
2015,07,01,16,39,26.60
2015,07,01,16,40,26.40
2015,07,01,16,41,26.20
2015,07,01,16,42,26.10
2015,07,01,16,43,26.00
2015,07,01,16,44,25.90
2015,07,01,16,45,25.80
2015,07,01,16,46,25.60
2015,07,01,16,47,25.60
2015,07,01,16,48,25.50
2015,07,01,16,49,25.40
2015,07,01,16,50,25.30
2015,07,01,16,51,25.30
2015,07,01,16,52,25.30
2015,07,01,16,53,25.20
2015,07,01,16,54,25.10
2015,07,01,16,55,24.90
2015,07,01,16,56,24.70
2015,07,01,16,57,24.50
2015,07,01,16,58,24.40
2015,07,01,16,59,24.40
2015,07,01,17,00,24.40
2015,07,01,17,01,24.40
2015,07,01,17,02,24.30
2015,07,01,17,03,24.30
2015,07,01,17,04,24.40
2015,07,01,17,05,24.40
2015,07,01,17,06,24.50
2015,07,01,17,07,24.60
2015,07,01,17,08,24.70
2015,07,01,17,09,24.80
2015,07,01,17,10,24.80
2015,07,01,17,11,24.90
2015,07,01,17,12,24.80
2015,07,01,17,13,24.70
2015,07,01,17,14,24.60
2015,07,01,17,15,24.60
2015,07,01,17,16,24.60
2015,07,01,17,17,24.50
2015,07,01,17,18,24.30
2015,07,01,17,19,24.20